Terminal Aerodrome Forecast
Issued by NWS

Current Version | Previous Version | Text Only | Print | Product List | Glossary On
Versions: 1 2 3 4 5 6 7 8 9 10 11 12 13 14 15 16 17 18 19 20 21 22
000
FTUS43 KAPX 300520
TAFPLN
TAF
KPLN 300520Z 3006/3106 00000KT 4SM BR SCT002
      TEMPO 3006/3010 1SM BR BKN002
     FM301300 VRB03KT P6SM SCT012
     FM301700 25006KT P6SM SCT035
     FM310100 00000KT P6SM SKC=

USA.gov is the U.S. government's official web portal to all federal, state and local government web resources and services.